Location: Brentwood
(37.9320°N, 121.6950°W)
Time: 03:45:55
(UTC-07:00)

ISS - Visible Passes

Search period start: 23 March 2019 00:00
Search period end: 02 April 2019 00:00
Orbit: 406 x 411 km, 51.6° (Epoch: 23 March)

Date Brightness Start Highest point End Pass type
(mag) Time Alt. Az. Time Alt. Az. Time Alt. Az.
23 Mar -3.3 20:01:22 10° WSW 20:04:38 62° NW 20:07:54 10° NE visible
23 Mar -0.8 21:40:07 10° NW 21:41:44 13° NNW 21:41:48 13° NNW visible
24 Mar -1.2 20:48:04 10° WNW 20:50:25 18° NNW 20:52:46 10° NNE visible
25 Mar -1.8 19:56:17 10° W 19:59:09 26° NNW 20:02:01 10° NNE visible
26 Mar -0.8 20:44:03 10° NW 20:45:11 11° NNW 20:46:18 10° N visible
27 Mar -1.0 19:51:46 10° WNW 19:53:47 15° NNW 19:55:49 10° NNE visible
31 Mar -1.0 21:20:17 10° N 21:21:11 11° NNE 21:21:11 11° NNE visible
01 Apr -0.6 22:04:23 10° NNW 22:04:46 12° NNW 22:04:46 12° NNW visible
